Theta_e
317 317 316 315 315 315 315 315 315 315 315 315 314 314 315 315 316 317 318 318 318 318 318 319 320 322 316 308 308 318 337 331 320 314 309 302 300 295 294 294 297 292 296 299 300 299 298
318 317 316 315 315 315 315 314 314 314 314 314 314 313 314 314 315 316 317 317 317 317 318 319 321 322 311 300 313 319 312 315 314 309 306 303 302 301 295 294 293 297 297 299 299 299 298
317 316 316 316 314 314 314 314 314 314 314 314 314 314 313 314 315 315 317 316 316 317 318 320 322 319 309 304 316 312 313 310 312 313 306 306 306 303 299 297 298 298 296 297 298 298 297
316 315 315 315 314 314 313 313 313 313 313 313 313 313 313 313 314 315 315 316 316 317 319 321 321 314 301 312 314 310 311 311 312 311 310 309 307 302 299 299 299 295 292 288 295 298 298
316 316 315 315 314 313 313 313 312 313 313 313 312 312 312 313 313 314 314 314 316 319 321 322 312 308 302 318 311 313 311 309 309 309 309 312 306 300 300 294 290 290 286 287 292 296 296
315 315 315 314 313 312 312 312 312 312 312 312 312 311 312 312 313 313 313 314 316 317 319 320 316 304 306 307 311 310 310 310 307 306 305 304 299 295 293 291 284 286 285 287 288 294 295
315 315 314 314 313 312 312 311 311 311 311 311 311 311 311 312 312 312 309 306 304 302 304 303 304 306 309 314 312 309 310 308 306 302 295 297 293 290 294 294 294 291 289 288 291 295 293
315 314 313 312 312 312 311 311 311 311 311 310 311 311 311 311 312 312 306 303 307 307 300 307 308 308 312 313 307 310 310 302 300 294 296 293 290 295 297 297 294 293 289 288 292 296 294
316 315 314 313 312 311 311 310 310 310 310 309 309 309 310 311 311 308 304 308 311 307 300 303 307 307 308 310 306 306 307 302 298 294 293 291 295 299 298 295 294 291 289 289 290 293 294
315 314 313 312 311 311 311 310 310 310 309 309 308 309 309 309 307 305 305 310 310 309 295 302 305 308 306 305 301 309 308 303 298 295 295 293 297 297 295 294 294 288 295 294 293 290 284
315 314 313 311 311 310 310 309 309 309 308 308 308 308 309 309 300 303 308 309 308 311 286 307 305 311 305 301 301 304 307 302 297 297 295 293 295 295 293 295 296 292 295 293 293 289 285
315 313 312 311 310 310 309 309 309 308 308 307 307 308 308 306 302 308 311 307 310 296 286 303 302 302 300 302 301 303 303 303 302 296 296 296 299 298 297 299 297 297 293 290 287 284 280
315 312 312 311 310 310 309 308 308 308 308 307 307 307 306 307 299 306 307 306 289 288 303 297 298 299 297 296 298 299 298 295 293 288 288 293 295 299 300 294 296 293 286 280 279 278 280
315 312 311 310 310 309 308 308 308 307 307 306 305 305 305 308 304 308 305 298 284 293 299 301 300 299 294 299 298 299 296 292 296 293 288 287 287 297 300 295 291 290 288 281 277 277 281
314 312 311 310 310 309 308 307 307 307 306 305 304 299 302 308 309 306 298 287 285 295 302 298 298 294 293 299 296 296 293 293 296 295 289 287 289 298 299 298 296 290 286 289 283 283 278
313 311 309 309 309 308 308 307 307 307 306 304 295 297 301 310 310 303 294 288 293 303 301 300 292 295 289 293 292 293 293 297 298 300 295 292 286 295 299 298 296 292 294 283 282 278 277
311 310 309 309 309 308 308 307 307 307 305 303 293 291 301 305 306 298 289 291 297 303 304 299 294 293 293 292 293 292 294 297 300 298 297 293 290 290 295 292 290 289 286 286 285 283 278
310 308 308 308 308 308 307 307 307 306 304 298 288 287 298 305 295 290 289 295 300 302 302 300 298 295 292 294 294 293 293 297 302 299 293 294 289 285 290 295 297 293 290 288 280 281 282
309 308 308 307 308 307 307 306 306 305 304 297 284 287 301 301 289 289 293 295 299 298 298 297 296 298 297 293 289 294 296 302 301 298 295 294 287 280 284 287 292 290 291 290 287 283 281
308 307 307 307 306 306 306 306 305 305 304 293 287 285 295 295 294 290 289 291 293 298 298 298 296 297 295 293 295 292 295 301 301 301 308 301 288 286 283 286 289 288 291 292 288 277 285
307 307 306 306 305 305 305 305 305 304 304 293 291 290 290 286 289 288 289 291 289 290 296 296 293 293 291 288 291 291 294 295 298 303 299 295 286 289 290 292 292 291 291 292 289 291 285
306 306 306 305 305 304 304 304 305 304 302 292 286 286 287 285 288 288 288 286 287 291 292 290 290 292 292 288 289 288 292 291 290 294 293 293 287 289 286 290 291 288 290 289 290 291 292
305 305 305 304 304 304 303 303 304 304 299 287 288 288 287 285 286 286 285 288 289 291 292 295 291 290 290 292 293 293 295 295 293 291 290 290 288 285 282 287 287 282 286 288 289 290 290
305 304 304 304 303 303 303 303 303 304 299 290 288 286 282 281 286 287 288 289 287 289 287 290 291 291 294 297 296 295 293 294 294 294 294 287 286 284 281 282 274 286 293 294 292 293 293
304 304 303 303 303 303 303 302 302 302 302 292 290 287 282 280 285 284 285 286 288 287 285 287 293 294 296 294 288 284 284 286 289 292 291 292 287 276 274 276 284 288 293 291 289 290 296
303 303 303 302 303 302 302 302 302 302 303 291 289 289 289 282 280 287 284 285 281 282 285 290 291 294 294 289 287 283 278 283 283 287 293 291 291 284 281 276 276 285 296 298 297 287 297
302 302 302 302 303 302 302 301 301 301 301 294 290 290 287 283 284 285 282 283 286 283 280 283 286 287 292 284 281 281 280 288 281 281 283 285 287 283 282 282 286 293 296 297 284 282 293
302 302 302 303 302 302 302 302 301 301 300 297 293 291 292 286 286 288 288 285 284 283 279 283 285 286 286 286 285 282 281 284 284 285 283 284 284 283 284 282 280 295 296 286 291 293 294
302 302 302 303 302 302 302 302 301 301 300 300 292 293 294 289 286 291 291 291 290 290 286 284 284 284 288 284 284 285 282 284 282 279 290 282 288 284 285 281 289 293 291 292 293 292 293
Wind_Speed
20 21 22 22 23 21 21 21 20 20 19 19 21 20 19 18 17 16 15 13 11 9 9 10 10 12 4 4 6 8 7 2 2 2 4 3 6 2 2 3 6 0 3 4 6 7 6
20 21 22 22 21 21 21 22 22 21 20 20 20 21 20 19 18 16 15 13 10 8 9 8 8 11 1 3 4 7 3 2 2 1 3 2 2 3 2 2 1 3 4 7 6 8 4
21 22 22 21 21 22 22 22 23 23 22 22 21 20 21 20 18 17 15 14 11 9 8 7 6 2 2 9 2 6 5 3 3 4 3 2 4 4 2 5 3 4 8 7 3 3 5
21 21 21 21 21 22 22 23 23 23 23 22 22 22 22 22 20 19 18 16 12 10 7 5 2 0 6 4 2 4 5 6 8 6 4 5 5 3 2 1 8 5 5 6 6 6 4
20 20 21 21 22 22 22 23 23 23 23 24 23 22 22 23 22 21 20 18 12 6 5 5 0 2 9 10 3 5 7 5 2 3 3 1 5 2 5 4 5 6 1 3 9 4 3
21 21 21 21 22 23 23 23 23 24 24 24 24 23 22 22 22 20 22 12 3 2 4 3 1 2 6 3 5 3 6 3 2 3 5 6 5 3 3 4 3 5 2 3 5 6 4
20 21 21 22 22 23 23 24 25 25 25 25 25 25 24 23 21 17 12 3 6 5 1 6 8 6 7 5 5 5 3 1 3 6 1 4 4 5 9 8 6 4 4 5 5 6 3
19 21 22 23 24 23 23 24 25 25 26 27 26 27 27 25 22 15 1 1 5 5 9 12 16 9 10 4 5 10 5 4 2 3 1 6 4 6 7 4 6 6 3 6 5 6 1
19 20 21 22 23 23 25 25 25 26 27 27 27 26 28 27 25 2 1 5 4 1 4 8 5 5 7 10 9 13 8 5 4 1 2 4 8 3 2 3 4 3 4 4 6 3 4
17 19 20 21 22 24 25 26 27 28 28 29 27 27 24 30 2 3 5 4 7 3 5 7 3 6 5 6 4 8 9 8 1 7 4 5 4 3 3 4 5 3 6 3 5 4 3
17 18 19 21 22 24 26 27 28 29 30 29 30 25 24 10 4 1 2 7 3 5 5 1 2 1 5 8 2 2 2 4 8 7 5 9 6 8 4 6 6 9 4 3 3 5 2
17 19 19 20 22 23 25 27 28 29 31 34 33 28 23 3 1 7 7 6 5 7 7 3 1 1 1 2 4 2 3 3 3 3 3 8 2 4 7 3 4 3 2 5 4 2 2
15 17 18 20 22 23 24 26 29 31 32 34 36 33 15 2 4 4 4 6 6 5 4 1 1 2 1 4 4 5 6 5 6 2 5 5 5 3 4 4 4 7 6 5 6 5 6
14 15 17 19 21 23 24 26 27 31 34 36 36 31 5 5 2 6 5 7 4 4 5 2 4 4 5 1 2 4 2 1 4 3 1 3 7 6 3 6 5 0 7 6 5 4 6
12 13 16 18 19 21 23 26 27 29 33 37 30 6 5 4 5 3 7 3 7 5 3 6 6 6 4 2 1 4 2 5 4 3 5 4 6 1 1 3 7 3 3 5 3 3 1
12 14 16 17 18 21 22 25 28 30 33 34 6 5 5 10 3 6 6 5 4 4 6 5 5 4 4 3 2 1 3 3 5 2 5 2 4 4 2 2 2 5 5 3 2 5 6
10 13 15 16 17 19 21 23 26 29 32 27 4 7 4 11 3 6 3 7 5 8 3 3 5 6 7 5 6 4 5 4 3 3 3 4 5 5 1 3 6 2 1 2 3 5 4
9 12 15 16 17 18 20 21 24 26 29 10 4 5 5 7 3 1 1 3 8 6 5 5 3 5 6 5 4 6 7 8 3 3 2 3 4 5 9 5 5 5 7 7 6 5 4
8 11 13 15 16 18 19 21 22 23 19 5 3 5 5 3 1 4 7 6 5 7 6 7 5 4 3 4 4 7 7 7 4 4 5 2 1 4 8 6 1 3 3 4 3 3 6
9 10 13 14 16 17 18 21 22 24 23 3 3 5 6 6 2 5 6 5 8 9 11 7 7 6 7 6 9 6 5 4 2 4 8 6 5 9 10 9 3 6 9 7 6 4 10
8 10 12 13 14 17 19 20 22 23 26 3 3 2 1 6 3 4 3 4 11 9 6 9 6 12 11 6 7 4 4 2 2 1 4 6 5 6 9 10 5 11 14 12 13 19 10
8 9 10 12 14 15 17 18 19 22 20 4 3 4 5 4 5 7 4 3 8 8 7 8 5 14 13 8 7 13 13 3 6 3 4 3 4 3 21 12 12 22 16 16 20 22 22
8 8 10 10 12 13 14 16 17 18 10 3 3 3 3 5 5 4 4 3 7 10 8 8 14 17 7 9 14 16 15 8 6 5 6 5 4 4 22 4 6 16 10 18 10 12 11
8 8 9 10 10 11 12 13 14 14 7 2 1 2 3 4 3 5 9 13 15 6 12 12 13 13 7 19 16 7 6 9 9 11 12 8 6 5 12 4 10 8 4 3 4 3 1
8 8 9 9 9 10 11 11 11 12 12 3 1 2 2 3 5 12 13 11 8 10 15 15 14 7 12 9 6 7 4 4 8 10 11 13 4 2 3 5 9 12 4 3 4 4 3
8 8 8 9 8 10 10 10 10 10 11 3 1 2 1 2 6 6 4 5 10 8 7 4 13 13 5 4 4 4 5 3 3 5 4 7 4 5 3 4 6 4 3 3 4 5 3
9 8 9 9 8 9 9 10 9 9 10 4 3 3 1 6 5 4 5 4 5 4 5 7 6 6 3 4 4 5 6 4 4 5 4 2 3 10 7 7 5 3 4 6 5 4 4
9 9 9 10 9 10 9 9 10 10 8 5 4 3 2 5 12 13 13 12 8 3 5 4 6 3 3 4 3 3 2 4 4 5 1 3 2 4 3 5 7 2 2 3 9 4 6
9 9 10 12 9 10 10 9 10 10 10 8 2 2 3 5 10 15 19 21 20 18 7 4 6 6 3 3 4 4 6 5 5 4 4 5 5 2 2 6 4 3 6 8 5 6 6
Wind_Direction
22 20 19 16 14 11 6 6 6 3 2 359 358 358 354 348 342 336 330 328 328 319 312 314 319 322 338 16 252 252 260 72 174 36 357 86 51 68 40 300 335 68 314 300 268 286 295
20 18 15 13 10 8 7 4 2 1 359 358 355 352 351 347 340 334 326 320 316 308 299 302 314 310 15 1 242 252 226 306 228 73 255 169 165 162 105 299 28 283 267 304 318 301 291
19 16 14 9 8 6 4 3 0 358 356 353 352 349 346 344 339 332 323 315 308 299 287 292 317 359 89 234 298 316 150 218 219 195 241 218 170 87 119 336 281 303 342 354 352 329 284
16 13 10 7 5 4 2 2 359 356 353 351 348 346 344 340 337 331 321 311 305 283 260 266 290 278 252 246 297 293 150 285 251 241 228 254 129 107 120 291 2 16 41 7 289 326 327
14 11 7 6 2 1 359 358 356 353 350 347 346 343 341 337 334 328 317 313 297 259 202 173 215 61 274 309 239 241 157 212 195 225 223 126 107 92 38 68 9 359 223 236 314 302 329
13 11 7 4 1 359 356 355 354 351 348 345 343 340 337 332 329 325 316 296 262 307 162 196 281 15 289 303 267 212 202 205 262 335 8 52 50 76 38 80 231 238 264 266 239 286 325
9 8 7 5 2 358 355 353 351 349 346 344 340 339 336 330 328 326 337 29 16 357 159 210 222 222 280 257 300 255 191 78 83 67 78 346 67 237 248 205 199 197 202 228 247 253 223
6 5 4 2 360 357 355 352 349 348 345 341 339 337 334 330 327 323 205 83 205 196 293 234 242 232 239 83 306 283 131 137 181 266 47 22 255 239 254 204 207 241 266 281 280 270 302
2 1 360 358 356 355 353 351 349 346 344 341 338 337 332 330 323 104 295 243 324 148 300 298 206 201 219 151 217 255 148 164 201 284 150 167 246 305 45 324 282 267 206 232 240 316 294
0 359 358 356 354 353 351 349 348 345 342 338 336 334 333 329 7 323 285 300 327 114 30 278 233 254 150 133 253 218 180 150 178 215 209 229 252 245 314 255 191 249 224 244 286 13 265
358 358 357 356 353 351 349 348 347 345 340 336 332 333 330 323 292 235 257 329 306 60 346 260 198 182 141 158 234 242 158 73 187 210 119 245 261 287 309 242 169 239 181 237 259 261 20
356 357 355 354 352 351 349 346 345 345 341 335 332 332 336 89 237 248 314 317 52 45 260 324 97 225 128 271 262 151 164 70 148 190 250 243 237 198 221 236 162 69 50 35 57 83 9
353 355 352 352 352 351 350 348 345 343 341 334 329 326 320 244 226 335 326 46 42 155 313 335 325 25 243 258 285 198 183 186 192 178 274 309 262 243 166 112 32 66 57 342 341 0 231
349 352 353 352 350 350 349 348 346 343 339 333 326 320 230 229 293 6 50 50 190 230 259 25 359 307 231 7 216 345 51 316 238 148 122 205 322 178 176 159 180 246 147 157 254 216 241
345 350 352 353 349 349 349 348 347 345 339 332 324 329 314 293 204 112 72 100 214 229 311 356 307 248 252 205 341 33 198 219 219 147 174 207 260 355 87 132 126 175 208 186 205 229 89
348 349 353 351 349 350 350 351 348 347 343 335 327 339 295 313 145 63 74 234 254 239 328 301 228 253 245 281 0 56 247 211 169 149 150 195 292 249 128 120 55 148 174 9 15 295 258
349 351 350 350 350 349 354 353 350 348 344 332 13 6 271 335 69 53 183 233 272 271 285 257 248 253 230 224 209 210 229 282 176 152 132 186 156 272 63 197 196 274 187 158 163 158 225
354 350 351 350 350 351 353 353 352 351 348 29 357 344 321 352 46 43 220 296 323 310 358 308 270 240 219 221 233 229 219 217 173 163 213 208 165 216 217 241 236 184 206 157 137 260 224
349 350 349 349 351 353 352 351 353 348 4 323 342 269 308 47 3 345 335 327 278 348 358 319 291 326 8 256 265 219 223 228 182 155 171 180 289 344 329 347 99 186 179 146 134 87 200
347 350 350 349 351 353 352 350 351 346 345 114 11 337 320 32 52 72 348 298 325 320 295 337 296 300 342 305 244 251 232 221 127 148 182 152 191 181 246 226 192 247 249 261 167 195 275
344 347 348 349 353 355 356 352 349 347 342 97 34 341 32 326 339 344 252 261 293 325 354 1 320 9 343 296 308 267 258 336 344 279 128 166 240 206 246 261 244 254 252 247 231 250 229
342 344 347 349 351 354 355 355 352 353 344 69 44 13 354 285 286 327 1 303 295 347 345 309 349 335 322 303 349 315 307 241 227 229 191 187 239 257 277 275 260 268 265 259 251 253 249
333 341 345 348 349 353 354 357 357 3 19 48 329 356 94 294 330 3 253 344 309 336 274 283 335 319 290 304 311 285 270 263 243 204 213 193 184 158 272 91 327 285 239 235 243 245 239
328 338 342 343 344 350 353 356 357 2 55 100 314 58 53 298 326 262 292 299 292 299 279 290 284 275 298 316 305 285 246 246 239 230 198 201 186 154 270 97 260 263 266 289 252 249 44
326 332 334 335 340 346 345 347 351 357 11 78 266 84 65 295 272 287 275 283 312 297 288 275 279 318 305 292 301 316 295 277 238 226 228 220 126 225 183 201 285 300 24 35 32 279 91
320 323 328 328 330 335 334 338 341 351 356 73 331 142 38 275 245 288 316 284 283 288 318 269 342 301 319 287 217 245 238 238 280 304 147 133 156 152 153 218 240 205 360 255 113 240 89
312 317 321 317 322 323 322 326 334 343 342 358 268 131 99 272 263 246 219 279 336 359 276 296 309 306 298 244 225 212 245 244 253 228 215 180 175 214 215 235 264 51 332 1 225 240 277
306 315 312 307 307 310 312 318 325 330 333 336 304 197 205 266 282 253 261 265 275 213 223 291 337 17 317 265 265 282 268 32 305 343 208 204 228 232 209 211 252 211 111 143 231 277 286
297 309 302 299 288 303 305 312 316 316 321 320 268 230 192 240 266 289 267 253 240 237 258 236 245 317 264 332 344 334 308 280 235 254 196 224 189 280 246 254 288 231 202 241 234 254 270